Regional Weather Roundup
Issued by NWS Goodland, KS

Home | Current Version | Previous Version | Text Only | Print | Product List | Glossary Off
Versions: 1 2 3 4 5 6 7 8 9 10 11 12 13 14 15 16 17 18 19 20 21 22 23 24 25 26 27 28 29 30 31 32 33 34 35 36 37 38 39 40 41 42 43 44 45 46 47 48 49 50

000
ASUS43 KGLD 040659
RWRGLD

GOODLAND FORECAST AREA HOURLY WEATHER ROUNDUP
NATIONAL WEATHER SERVICE GOODLAND KS
100 AM MDT WED MAY 04 2016

...OFFICIAL OBSERVATIONS...

CITY           SKY/WX    TMP DP  RH WIND       PRES   REMARKS
GOODLAND KS    CLEAR     43  35  73 W8        30.14R
HILL CITY KS   CLEAR     48  42  80 W10       30.07R
IMPERIAL NEB   CLEAR     47  37  68 W8        30.13R
MCCOOK NEB     CLEAR     44  39  82 W8        30.08R
AKRON CO       CLEAR     45  29  53 W8        30.21R
BURLINGTON CO  CLEAR     41  34  76 W9        30.18R
LIMON CO       CLEAR     38  35  89 N5        30.26R
$$

...UNOFFICIAL OBSERVATIONS...

CITY           SKY/WX    TMP DP  RH WIND       PRES   REMARKS
COLBY KS       CLEAR     45  43  93 W9        30.13R
NORTON KS      CLEAR     46  39  76 W9        30.05S
SHARON SPRINGS   N/A     43  37  78 W8          N/A
TRIBUNE KS     CLEAR     43  37  81 W7        30.17S
KIT CARSON CO    N/A     42  36  79 MISG        N/A
YUMA CO          N/A     39  35  85 CALM        N/A
$$




USA.gov is the U.S. government's official web portal to all federal, state and local government web resources and services.